Flag for Canada Weather past 2 weeks in Pictou County, Nova Scotia, Canada

Now
64 °F

Mild.


Feels Like: 64 °F
Forecast: 63 / 70 °F
Wind: 7 mph from Northwest

Location: Caribou Point

Current Time: Jul 25, 2014 at 4:29:39 AM

Latest Report: Jul 25, 2014 at 3:00 AM


Visibility: N/A

Pressure: 29.78 "Hg

Humidity: 96%

Dew point: 63 °F

Location of Pictou CountyLocation

Historic Weather in Pictou County — Graph

°F

Pictou County temperature yesterday

Maximum temperature yesterday: 74 °F (at 12:00 PM)
Minimum temperature yesterday: 65 °F (at 11:00 PM)
Average temperature yesterday: 68 °F

Past Weeks' High & Low Weather Summary

 TemperatureHumidityPressure
High89 °F (Jul 23, 4:00 PM)99% (Jul 18, 2:00 AM)30.27 "Hg (Jul 18, 2:00 AM)
Low58 °F (Jul 12, 6:00 AM)31% (Jul 13, 6:00 PM)29.70 "Hg (Jul 23, 6:00 PM)
Average70 °F77%30.01 "Hg
* Reported Jul 10 3:00 AM — Jul 25 3:00 AM, Pictou County, Weather by CustomWeather, © 2014

Note: Actual official high and low records may vary slightly from our data, if they occured in-between our weather recording intervals... More about our weather records

Advertising

Pictou County weather history for previous 24 hours

 ConditionsComfort  
Time TempWeatherWind HumidityBarometerVisibility
3:00 AM
Jul 25
64 °FMild.7 mph96%29.78 "HgN/A
2:00 AM64 °FMild.7 mph96%29.77 "HgN/A
1:00 AM65 °FMild.6 mph96%29.78 "HgN/A
12:00 AM65 °FMild.7 mph95%29.77 "HgN/A
11:00 PM
Jul 24
65 °FMild.7 mph95%29.78 "HgN/A
10:00 PM66 °FMild.9 mph95%29.78 "HgN/A
9:00 PM67 °FMild.12 mph95%29.76 "HgN/A
8:00 PM68 °FMild.5 mph94%29.75 "HgN/A
7:00 PM68 °FMild.3 mph94%29.75 "HgN/A
6:00 PM67 °FMild.2 mph93%29.74 "HgN/A
5:00 PM67 °FMild.5 mph88%29.75 "HgN/A
4:00 PM67 °FMild.8 mph92%29.75 "HgN/A
3:00 PM68 °FMild.9 mph91%29.76 "HgN/A
2:00 PM70 °FMild.7 mph86%29.76 "HgN/A
1:00 PM70 °FMild.6 mph79%29.76 "HgN/A
12:00 PM74 °FMild.6 mph74%29.77 "HgN/A
11:00 AM71 °FMild.8 mph80%29.78 "HgN/A
10:00 AM68 °FMild.8 mph86%29.77 "HgN/A
9:00 AM67 °FMild.10 mph90%29.77 "HgN/A
8:00 AM67 °FMild.7 mph85%29.77 "HgN/A
7:00 AM67 °FMild.8 mph85%29.76 "HgN/A
6:00 AM68 °FMild.6 mph82%29.74 "HgN/A
4:00 AM69 °FMild.12 mph84%29.72 "HgN/A
Weather by CustomWeather, © 2014

See weather overviewHow to use our weather pages